• In Czech Republic
  • List of Countries
  • For 7 days
  • Water Temperature
  • Satellite Maps
  • Weather Map
  • Weather Widgets
  • user-avatar
    Login

    Hourly Weather Soto la Marina

    Today, 16 December, Saturday

    Time Temperature Precipitation Wind Pressure Humidity
    00:00 +10°C° 0.3 mm 3 mps 764 mmHg 76%
    01:00 +10°C° 0.3 mm 3 mps 763 mmHg 79%
    02:00 +10°C° 0.3 mm 2 mps 763 mmHg 82%
    03:00 +12°C° 0 mm 2 mps 762 mmHg 82%
    04:00 +12°C° 0 mm 2 mps 762 mmHg 82%
    05:00 +12°C° 0 mm 2 mps 762 mmHg 82%
    06:00 +13°C° 0 mm 2 mps 762 mmHg 79%
    07:00 +14°C° 0 mm 2 mps 761 mmHg 77%
    08:00 +15°C° 0 mm 2 mps 761 mmHg 75%
    09:00 +17°C° 0 mm 2 mps 761 mmHg 70%
    10:00 +19°C° 0 mm 2 mps 760 mmHg 66%
    11:00 +21°C° 0 mm 2 mps 759 mmHg 61%
    12:00 +23°C° 0 mm 2 mps 759 mmHg 59%
    13:00 +24°C° 0 mm 2 mps 758 mmHg 57%
    14:00 +25°C° 0 mm 2 mps 757 mmHg 55%
    15:00 +24°C° 0 mm 2 mps 757 mmHg 62%
    16:00 +21°C° 0 mm 3 mps 757 mmHg 69%
    17:00 +20°C° 0 mm 3 mps 757 mmHg 76%
    18:00 +19°C° 0 mm 2 mps 758 mmHg 79%
    19:00 +18°C° 0 mm 2 mps 758 mmHg 82%
    20:00 +18°C° 0 mm 2 mps 759 mmHg 84%
    21:00 +18°C° 0 mm 2 mps 759 mmHg 85%
    22:00 +18°C° 0 mm 1 mps 759 mmHg 86%
    23:00 +18°C° 0 mm 1 mps 759 mmHg 87%

    Tomorrow, 17 December, Sunday

    Time Temperature Precipitation Wind Pressure Humidity
    00:00 +18°C° 0 mm 1 mps 759 mmHg 88%
    01:00 +18°C° 0 mm 1 mps 759 mmHg 89%
    02:00 +18°C° 0 mm 1 mps 759 mmHg 89%
    03:00 +18°C° 0 mm 1 mps 759 mmHg 90%
    04:00 +18°C° 0 mm 1 mps 759 mmHg 90%
    05:00 +16°C° 0 mm 1 mps 758 mmHg 91%
    06:00 +19°C° 0 mm 1 mps 759 mmHg 86%
    07:00 +20°C° 0 mm 1 mps 759 mmHg 81%
    08:00 +22°C° 0 mm 1 mps 760 mmHg 76%
    09:00 +23°C° 0 mm 1 mps 759 mmHg 70%
    10:00 +25°C° 0 mm 2 mps 759 mmHg 65%
    11:00 +27°C° 0 mm 3 mps 759 mmHg 59%
    12:00 +27°C° 0 mm 3 mps 759 mmHg 60%
    13:00 +28°C° 0 mm 3 mps 758 mmHg 61%
    14:00 +28°C° 0 mm 4 mps 757 mmHg 62%
    15:00 +26°C° 0 mm 3 mps 757 mmHg 69%
    16:00 +25°C° 0 mm 3 mps 758 mmHg 76%
    17:00 +22°C° 0 mm 3 mps 758 mmHg 83%
    18:00 +23°C° 0 mm 2 mps 758 mmHg 87%
    19:00 +21°C° 0 mm 2 mps 759 mmHg 90%
    20:00 +21°C° 0 mm 2 mps 759 mmHg 93%
    21:00 +21°C° 0 mm 2 mps 759 mmHg 93%
    22:00 +21°C° 0 mm 2 mps 759 mmHg 93%
    23:00 +21°C° 0 mm 2 mps 759 mmHg 93%

    Day after tomorrow, 18 December, Monday

    Time Temperature Precipitation Wind Pressure Humidity
    00:00 +20°C° 0 mm 2 mps 759 mmHg 94%
    01:00 +20°C° 0 mm 2 mps 759 mmHg 94%
    02:00 +20°C° 0 mm 2 mps 758 mmHg 94%
    03:00 +20°C° 0 mm 2 mps 758 mmHg 94%
    04:00 +20°C° 0 mm 2 mps 758 mmHg 94%
    05:00 +20°C° 0 mm 2 mps 758 mmHg 94%
    06:00 +21°C° 0 mm 2 mps 759 mmHg 89%
    07:00 +24°C° 0 mm 2 mps 760 mmHg 83%
    08:00 +25°C° 0 mm 3 mps 760 mmHg 78%
    09:00 +27°C° 0 mm 3 mps 760 mmHg 71%
    10:00 +29°C° 0 mm 4 mps 760 mmHg 63%
    11:00 +30°C° 0 mm 4 mps 760 mmHg 56%
    12:00 +32°C° 0 mm 4 mps 759 mmHg 56%
    13:00 +32°C° 0 mm 4 mps 758 mmHg 55%
    14:00 +32°C° 0 mm 5 mps 757 mmHg 55%
    15:00 +29°C° 0 mm 4 mps 757 mmHg 62%
    16:00 +28°C° 0 mm 4 mps 757 mmHg 69%
    17:00 +26°C° 0 mm 3 mps 757 mmHg 76%
    18:00 +25°C° 0 mm 3 mps 758 mmHg 81%
    19:00 +25°C° 0 mm 3 mps 758 mmHg 86%
    20:00 +24°C° 0 mm 2 mps 759 mmHg 90%
    21:00 +24°C° 0 mm 2 mps 759 mmHg 91%
    22:00 +24°C° 0 mm 2 mps 759 mmHg 91%
    23:00 +23°C° 0 mm 2 mps 759 mmHg 92%

    19 December, Tuesday

    Time Temperature Precipitation Wind Pressure Humidity
    00:00 +23°C° 0 mm 2 mps 759 mmHg 93%
    01:00 +23°C° 0 mm 2 mps 758 mmHg 94%
    02:00 +23°C° 0 mm 2 mps 758 mmHg 95%
    03:00 +23°C° 0 mm 2 mps 758 mmHg 95%
    04:00 +23°C° 0 mm 2 mps 758 mmHg 95%
    05:00 +23°C° 0 mm 2 mps 758 mmHg 96%
    06:00 +24°C° 0 mm 2 mps 758 mmHg 91%
    07:00 +25°C° 0 mm 3 mps 759 mmHg 85%
    08:00 +26°C° 0 mm 3 mps 759 mmHg 80%
    09:00 +28°C° 0 mm 4 mps 759 mmHg 72%
    10:00 +30°C° 0 mm 4 mps 758 mmHg 64%
    11:00 +32°C° 0 mm 5 mps 758 mmHg 56%
    12:00 +33°C° 0 mm 5 mps 757 mmHg 55%
    13:00 +33°C° 0 mm 5 mps 757 mmHg 54%
    14:00 +33°C° 0 mm 5 mps 756 mmHg 53%
    15:00 +30°C° 0 mm 4 mps 756 mmHg 62%
    16:00 +29°C° 0 mm 4 mps 756 mmHg 70%
    17:00 +27°C° 0 mm 3 mps 756 mmHg 78%
    18:00 +26°C° 0 mm 3 mps 757 mmHg 83%
    19:00 +25°C° 0 mm 2 mps 758 mmHg 88%
    20:00 +24°C° 0 mm 2 mps 759 mmHg 93%
    21:00 +24°C° 0.2 mm 2 mps 759 mmHg 94%
    22:00 +24°C° 0.2 mm 1 mps 759 mmHg 94%
    23:00 +24°C° 0.2 mm 1 mps 759 mmHg 94%

    20 December, Wednesday

    Time Temperature Precipitation Wind Pressure Humidity
    00:00 +23°C° 0.3 mm 1 mps 759 mmHg 93%
    01:00 +23°C° 0.3 mm 2 mps 759 mmHg 92%
    02:00 +23°C° 0.3 mm 2 mps 759 mmHg 91%
    03:00 +23°C° 0.1 mm 2 mps 759 mmHg 91%
    04:00 +23°C° 0.1 mm 2 mps 759 mmHg 92%
    05:00 +21°C° 0.1 mm 2 mps 759 mmHg 92%
    06:00 +22°C° 0 mm 3 mps 760 mmHg 90%
    07:00 +24°C° 0 mm 3 mps 760 mmHg 87%
    08:00 +24°C° 0 mm 3 mps 761 mmHg 85%
    09:00 +24°C° 0.1 mm 3 mps 760 mmHg 82%
    10:00 +25°C° 0.1 mm 3 mps 760 mmHg 79%
    11:00 +25°C° 0.1 mm 3 mps 760 mmHg 76%
    12:00 +26°C° 0 mm 3 mps 759 mmHg 72%
    13:00 +26°C° 0 mm 3 mps 758 mmHg 68%
    14:00 +27°C° 0 mm 3 mps 757 mmHg 64%
    15:00 +26°C° 0 mm 3 mps 757 mmHg 67%
    16:00 +25°C° 0 mm 3 mps 757 mmHg 70%
    17:00 +24°C° 0 mm 2 mps 757 mmHg 73%
    18:00 +23°C° 0 mm 2 mps 758 mmHg 76%
    19:00 +23°C° 0 mm 1 mps 758 mmHg 79%
    20:00 +22°C° 0 mm 1 mps 758 mmHg 83%
    21:00 +22°C° 0 mm 1 mps 758 mmHg 85%
    22:00 +22°C° 0 mm 1 mps 758 mmHg 88%
    23:00 +22°C° 0 mm 1 mps 757 mmHg 91%

    21 December, Thursday

    Time Temperature Precipitation Wind Pressure Humidity
    00:00 +22°C° 0 mm 1 mps 757 mmHg 92%
    01:00 +22°C° 0 mm 1 mps 756 mmHg 93%
    02:00 +21°C° 0 mm 2 mps 756 mmHg 94%
    03:00 +21°C° 0 mm 2 mps 756 mmHg 95%
    04:00 +21°C° 0 mm 2 mps 756 mmHg 95%
    05:00 +21°C° 0 mm 2 mps 756 mmHg 96%
    06:00 +22°C° 0 mm 3 mps 756 mmHg 90%
    07:00 +24°C° 0 mm 3 mps 756 mmHg 85%
    08:00 +26°C° 0 mm 4 mps 757 mmHg 79%
    09:00 +28°C° 0 mm 4 mps 756 mmHg 71%
    10:00 +30°C° 0 mm 5 mps 756 mmHg 62%
    11:00 +33°C° 0 mm 5 mps 755 mmHg 54%
    12:00 +33°C° 0 mm 5 mps 755 mmHg 54%
    13:00 +33°C° 0 mm 5 mps 754 mmHg 53%
    14:00 +33°C° 0 mm 6 mps 753 mmHg 53%
    15:00 +32°C° 0 mm 5 mps 753 mmHg 61%
    16:00 +29°C° 0 mm 5 mps 754 mmHg 69%
    17:00 +27°C° 0 mm 5 mps 754 mmHg 77%
    18:00 +26°C° 0 mm 5 mps 754 mmHg 81%
    19:00 +26°C° 0 mm 4 mps 755 mmHg 86%
    20:00 +25°C° 0 mm 4 mps 755 mmHg 91%
    21:00 +25°C° 0 mm 4 mps 755 mmHg 92%
    22:00 +23°C° 0 mm 4 mps 755 mmHg 92%
    23:00 +24°C° 0 mm 3 mps 755 mmHg 92%
    Show more